Back to catalog

STARLINK-32041

AliveCommunicationsVLEO
NORAD 60202·PAYLOAD·🇺🇸 United States

Launched Jul 3, 2024 from Cape Canaveral Space Force Station

Loading…

Next Passes (next 24 hours)

TLE

FreshSource: CelesTrak SupGP

Epoch: Sep 15, 2026, 02:07 UTC

1 60202C 24124V   26258.08868056 -.00035695  00000+0 -11478-2 0  2587
2 60202  53.1569 161.4212 0001308  89.1200 225.4952 15.31720316    19

Track STARLINK-32041 in real time with AllMySat

Download on the App Store